Location: *
(13.0000°N, 151.6000°E)
Time: 15:03:35
(UTC+00:00)

CENTAUR R/B - Pass Details

Date: 01 April 2020
Orbit: 761 x 1427 km, 63.5° (Epoch: 29 May)

Event Time Altitude Azimuth Distance (km) Brightness Sun altitude
Exits shadow 17:07:30 23° 47° (NE) 1,709 4.2 -39.5°
Drops below altitude 10° 17:09:47 10° 37° (NE) 2,528 5.2 -39.0°
Sets 17:12:30 0° 33° (NNE) 3,559 6.0 -38.3°
